Total_Precipitation_Accumulation
0.83 0.80 0.74 0.67 0.64 0.59 0.55 0.51 0.48 0.44 0.41 0.38 0.35 0.31 0.29 0.29 0.33 0.40 0.44 0.43 0.45 0.47 0.47 0.49 0.54 0.57 0.65 0.67 0.69 0.75 0.86 0.99 1.11 0.97 0.79 0.74 0.73 0.74 0.73 0.68 0.61 0.53 0.50
0.74 0.70 0.63 0.57 0.52 0.48 0.43 0.39 0.35 0.34 0.32 0.30 0.28 0.27 0.25 0.27 0.31 0.35 0.38 0.38 0.42 0.45 0.45 0.44 0.46 0.50 0.58 0.60 0.62 0.66 0.72 0.82 0.94 0.99 0.85 0.72 0.65 0.64 0.63 0.61 0.47 0.41 0.41
0.70 0.71 0.65 0.56 0.50 0.47 0.43 0.39 0.34 0.33 0.32 0.29 0.28 0.27 0.25 0.24 0.27 0.29 0.32 0.36 0.38 0.41 0.40 0.38 0.41 0.43 0.47 0.49 0.54 0.58 0.64 0.68 0.78 0.83 0.73 0.63 0.54 0.49 0.56 0.56 0.49 0.52 0.35
0.67 0.72 0.70 0.65 0.58 0.52 0.47 0.44 0.38 0.33 0.30 0.27 0.25 0.25 0.24 0.21 0.21 0.22 0.23 0.28 0.35 0.34 0.31 0.32 0.34 0.34 0.35 0.41 0.45 0.53 0.61 0.69 0.72 0.73 0.66 0.55 0.51 0.48 0.58 0.64 0.60 0.52 0.42
0.62 0.63 0.61 0.57 0.56 0.51 0.46 0.42 0.37 0.32 0.29 0.28 0.26 0.25 0.23 0.20 0.17 0.17 0.19 0.21 0.30 0.30 0.28 0.27 0.27 0.27 0.30 0.33 0.36 0.44 0.56 0.69 0.75 0.78 0.70 0.60 0.55 0.62 0.69 0.64 0.59 0.47 0.40
0.60 0.60 0.54 0.49 0.47 0.42 0.39 0.34 0.30 0.30 0.29 0.28 0.28 0.26 0.23 0.21 0.21 0.20 0.18 0.21 0.27 0.30 0.30 0.28 0.25 0.23 0.23 0.24 0.26 0.31 0.44 0.60 0.76 0.86 0.80 0.73 0.66 0.71 0.77 0.74 0.75 0.68 0.60
0.66 0.60 0.55 0.51 0.48 0.40 0.35 0.34 0.33 0.34 0.33 0.29 0.25 0.26 0.27 0.23 0.19 0.19 0.18 0.21 0.27 0.35 0.36 0.34 0.27 0.24 0.30 0.32 0.28 0.24 0.30 0.40 0.62 0.85 0.95 0.87 0.78 0.83 0.93 0.91 0.87 0.85 0.77
0.65 0.59 0.53 0.50 0.48 0.42 0.39 0.41 0.37 0.36 0.36 0.34 0.29 0.27 0.28 0.23 0.19 0.20 0.21 0.26 0.29 0.34 0.35 0.34 0.38 0.39 0.32 0.30 0.28 0.32 0.41 0.50 0.58 0.66 0.85 0.86 0.75 0.75 0.89 0.91 0.85 0.79 0.73
0.57 0.51 0.48 0.46 0.47 0.45 0.43 0.43 0.39 0.39 0.38 0.36 0.31 0.30 0.32 0.30 0.25 0.26 0.30 0.35 0.34 0.33 0.31 0.28 0.31 0.34 0.29 0.27 0.32 0.43 0.51 0.57 0.49 0.59 0.69 0.79 0.84 0.77 0.73 0.76 0.89 0.95 0.93
0.47 0.40 0.40 0.43 0.44 0.40 0.39 0.42 0.40 0.39 0.40 0.36 0.33 0.32 0.33 0.32 0.23 0.24 0.28 0.33 0.35 0.33 0.33 0.33 0.29 0.25 0.25 0.27 0.35 0.49 0.60 0.61 0.66 0.83 1.00 1.08 1.04 0.94 0.77 0.81 1.00 1.07 1.09
0.37 0.34 0.37 0.42 0.44 0.40 0.39 0.41 0.41 0.38 0.41 0.39 0.35 0.32 0.31 0.25 0.19 0.17 0.18 0.22 0.28 0.29 0.35 0.41 0.38 0.27 0.26 0.25 0.33 0.47 0.59 0.65 0.90 1.21 1.27 1.16 1.04 0.94 0.83 0.79 0.86 0.94 1.04
0.40 0.38 0.39 0.40 0.32 0.30 0.40 0.42 0.38 0.41 0.43 0.40 0.36 0.34 0.28 0.23 0.14 0.09 0.10 0.14 0.17 0.26 0.43 0.42 0.38 0.33 0.29 0.29 0.37 0.54 0.61 0.82 1.10 1.30 1.21 1.02 0.87 0.77 0.71 0.66 0.67 0.71 0.82
0.51 0.50 0.44 0.42 0.39 0.36 0.38 0.38 0.38 0.39 0.37 0.30 0.26 0.24 0.22 0.23 0.19 0.09 0.07 0.09 0.13 0.20 0.36 0.40 0.39 0.36 0.38 0.51 0.59 0.71 0.80 0.99 1.18 1.17 1.03 0.90 0.79 0.70 0.62 0.61 0.59 0.61 0.63
0.58 0.53 0.47 0.45 0.43 0.38 0.36 0.30 0.30 0.29 0.27 0.25 0.22 0.20 0.20 0.20 0.16 0.12 0.11 0.14 0.18 0.22 0.33 0.45 0.54 0.58 0.61 0.71 0.80 0.90 0.99 1.07 1.04 0.94 0.83 0.76 0.68 0.64 0.61 0.57 0.57 0.58 0.62
0.58 0.52 0.46 0.37 0.33 0.34 0.28 0.19 0.17 0.16 0.14 0.14 0.14 0.13 0.17 0.18 0.13 0.14 0.15 0.16 0.23 0.28 0.33 0.51 0.70 0.77 0.81 0.86 0.85 0.89 0.94 0.91 0.90 0.85 0.78 0.69 0.64 0.62 0.60 0.58 0.60 0.56 0.57
0.49 0.45 0.36 0.27 0.25 0.23 0.23 0.19 0.12 0.09 0.09 0.07 0.07 0.08 0.10 0.13 0.11 0.11 0.14 0.18 0.26 0.35 0.40 0.60 0.78 0.82 0.83 0.85 0.80 0.80 0.82 0.79 0.74 0.72 0.72 0.67 0.63 0.60 0.59 0.59 0.60 0.58 0.58
0.39 0.34 0.24 0.18 0.18 0.19 0.21 0.27 0.29 0.18 0.08 0.06 0.06 0.07 0.09 0.11 0.11 0.11 0.15 0.21 0.26 0.34 0.42 0.60 0.77 0.89 0.89 0.82 0.75 0.74 0.78 0.78 0.74 0.71 0.67 0.64 0.58 0.53 0.53 0.55 0.54 0.53 0.53
0.25 0.20 0.16 0.16 0.14 0.13 0.12 0.16 0.25 0.31 0.27 0.20 0.11 0.08 0.08 0.11 0.13 0.13 0.16 0.21 0.29 0.34 0.44 0.59 0.70 0.77 0.80 0.81 0.76 0.73 0.74 0.77 0.73 0.67 0.61 0.59 0.54 0.51 0.50 0.53 0.52 0.45 0.43
0.17 0.17 0.14 0.12 0.10 0.09 0.09 0.10 0.14 0.19 0.24 0.25 0.22 0.15 0.11 0.14 0.18 0.20 0.20 0.23 0.30 0.35 0.42 0.51 0.60 0.61 0.59 0.61 0.61 0.61 0.65 0.68 0.64 0.55 0.52 0.53 0.53 0.50 0.49 0.48 0.43 0.34 0.34
0.13 0.10 0.08 0.07 0.07 0.07 0.07 0.08 0.11 0.14 0.19 0.23 0.22 0.18 0.17 0.24 0.33 0.32 0.26 0.24 0.25 0.28 0.35 0.44 0.50 0.48 0.46 0.45 0.44 0.44 0.46 0.48 0.47 0.46 0.45 0.45 0.46 0.46 0.43 0.40 0.37 0.34 0.35
0.07 0.06 0.05 0.05 0.06 0.07 0.06 0.05 0.07 0.09 0.13 0.17 0.16 0.13 0.18 0.26 0.34 0.37 0.36 0.33 0.31 0.31 0.32 0.34 0.37 0.41 0.41 0.39 0.37 0.34 0.34 0.36 0.37 0.40 0.42 0.43 0.43 0.42 0.36 0.32 0.29 0.26 0.26
0.04 0.04 0.03 0.04 0.05 0.04 0.03 0.02 0.03 0.05 0.10 0.13 0.14 0.12 0.17 0.22 0.28 0.31 0.36 0.42 0.41 0.39 0.36 0.34 0.34 0.38 0.41 0.42 0.36 0.33 0.32 0.34 0.36 0.39 0.41 0.40 0.38 0.33 0.28 0.26 0.23 0.23 0.23
0.02 0.02 0.02 0.02 0.01 0.01 0.01 0.01 0.02 0.03 0.07 0.09 0.10 0.12 0.15 0.21 0.24 0.26 0.32 0.39 0.44 0.43 0.39 0.35 0.37 0.39 0.41 0.42 0.38 0.32 0.29 0.29 0.30 0.32 0.37 0.37 0.34 0.30 0.25 0.24 0.21 0.21 0.22
0.01 0.01 0.01 0.01 0.01 0.01 0.01 0.01 0.02 0.02 0.03 0.05 0.07 0.11 0.15 0.19 0.20 0.23 0.29 0.35 0.41 0.44 0.41 0.39 0.38 0.39 0.39 0.40 0.36 0.27 0.24 0.24 0.23 0.24 0.29 0.32 0.29 0.26 0.22 0.21 0.20 0.21 0.22
0.01 0.01 0.01 0.01 0.01 0.01 0.01 0.01 0.02 0.02 0.03 0.04 0.06 0.08 0.10 0.13 0.16 0.18 0.23 0.29 0.34 0.38 0.37 0.36 0.36 0.34 0.31 0.30 0.28 0.23 0.21 0.21 0.22 0.22 0.24 0.26 0.24 0.23 0.22 0.23 0.21 0.20 0.20
0.01 0.01 0.00 0.01 0.01 0.01 0.02 0.02 0.03 0.04 0.04 0.05 0.06 0.06 0.07 0.08 0.11 0.14 0.16 0.19 0.23 0.28 0.31 0.31 0.30 0.28 0.24 0.21 0.21 0.21 0.20 0.18 0.17 0.18 0.22 0.26 0.25 0.23 0.24 0.24 0.21 0.21 0.20